Hourly Data Report for May 17, 2022

WINNIPEG THE FORKS
MANITOBA
Current Station Operator: ECCC - MSC

49°53'18.008" N
97°07'46.007" W
230.00 m
5023262
71579
XWN

Download Data

Hourly Data (May 2022)
Hourly Data Report for May 17, 2022
TIME
LST
Temp Definition
°C
Dew Point Definition
°C
Rel Hum Definition
%
Precip. Amount Definition
mm

Wind Dir Definition
10's deg

Wind Spd Definition
km/h
Visibility Definition
km
Stn Press Definition
kPa
Hmdx Definition


Wind Chill Definition


Weather Definition


00:00 8.3 2.7 68 0.0 5 2   98.92     LegendNANA
01:00 8.2 2.7 68 0.0 6 5   98.94     LegendNANA
02:00 7.6 2.5 70 0.0 5 5   98.94     LegendNANA
03:00 7.2 2.2 71 0.0 5 4   98.92     LegendNANA
04:00 7.1 2.4 72 0.0 5 4   98.88     LegendNANA
05:00 6.2 2.3 76 0.0 2 4   98.87     LegendNANA
06:00 6.6 2.4 74 0.0 1 3   98.96     LegendNANA
07:00 7.4 2.7 72 0.0 9 2   98.96     LegendNANA
08:00 9.2 3.2 66 0.0 20 2   98.94     LegendNANA
09:00 10.1 4.9 70 0.0 20 3   98.92     LegendNANA
10:00 10.8 6.0 72 0.5 7 1   98.88     LegendNANA
11:00 13.0 6.1 63 0.0 23 1   98.86     LegendNANA
12:00 13.7 4.7 54 0.0 11 5   98.84     LegendNANA
13:00 13.2 7.1 66 0.0 22 3   98.84     LegendNANA
14:00 12.1 7.3 73 1.1 9 3   98.81     LegendNANA
15:00 12.2 8.6 79 0.3 6 3   98.78     LegendNANA
16:00 11.7 8.9 83 1.4 7 5   98.72     LegendNANA
17:00 11.5 8.9 84 0.6 7 8   98.63     LegendNANA
18:00 11.3 8.8 85 0.6 8 6   98.54     LegendNANA
19:00 11.3 8.6 83 0.0 7 5   98.52     LegendNANA
20:00 10.9 8.5 85 0.2 7 5   98.53     LegendNANA
21:00 10.6 8.4 86 0.3 6 8   98.53     LegendNANA
22:00 10.4 7.8 84 0.0 8 7   98.46     LegendNANA
23:00 10.4 7.4 82 0.0 7 9   98.42     LegendNANA

Notes on Data Quality.

Legend

  • E = Estimated
  • M = Missing
  • NA = Not Available*
  • [empty] = Indicates an unobserved value
Date modified: